Location: Hiram
(41.3130°N, 81.1440°W)
Time: 17:26:32
(UTC-05:00)

Amateur Radio Satellites - All Passes

Search period start: 18 December 2014 16:56
Search period end: 19 December 2014 16:56
Location: Hiram, 41.3130°N, 81.1440°W

Satellite Date Start Highest point End Downlink Frequencies (MHz)
Time Altitude Azimuth
ISS 18 Dec 17:12:29 17:14:36 16° 349° (NNW) 17:16:43 145.825
Cubesat XI-IV 18 Dec 17:20:27 17:25:30 45° 70° (ENE) 17:30:34 437.490
JAS-2 18 Dec 17:25:50 17:33:14 48° 261° (W) 17:40:07 435.910
AIST 1 18 Dec 17:38:01 17:42:10 41° 282° (WNW) 17:46:20
CUTE-I 18 Dec 17:54:05 17:59:25 89° 75° (ENE) 18:04:46 437.470
AO-7 18 Dec 17:54:32 17:58:18 14° 272° (W) 18:02:05 29.400- 29.500
PRISM 18 Dec 18:05:19 18:08:59 29° 97° (E) 18:12:36 437.425
MOZHAYETS 4 18 Dec 18:05:54 18:10:12 39° 289° (WNW) 18:14:27
HO-68 18 Dec 18:13:25 18:15:13 11° 48° (NE) 18:17:00 435.675
GONETS M04 18 Dec 18:27:13 18:35:14 42° 273° (W) 18:43:12
STRAND 1 18 Dec 18:37:18 18:41:41 29° 96° (E) 18:46:03 437.568
RS-15 18 Dec 18:39:08 18:47:54 25° 22° (NNE) 18:56:52 29.354- 29.394
MaSat-1 18 Dec 18:49:39 18:51:58 46° 63° (ENE) 18:54:26 437.345
ISS 18 Dec 18:50:10 18:52:11 15° 9° (N) 18:54:12 145.825
CUSAT 1 18 Dec 19:00:44 19:04:00 13° 61° (ENE) 19:07:25 437.405
Cubesat XI-IV 18 Dec 19:01:37 19:05:47 23° 266° (W) 19:09:57 437.490
CUBESAT XI-V 18 Dec 19:22:06 19:26:43 83° 284° (WNW) 19:31:18 437.345
GOMX 1 18 Dec 19:25:47 19:27:06 11° 62° (ENE) 19:28:26 467.674
AAUSAT CUBESAT 2 18 Dec 19:31:22 19:32:45 11° 62° (ENE) 19:34:07 437.432
CANX-2 18 Dec 19:34:46 19:37:59 21° 67° (ENE) 19:41:14 2200.000
CUTE-I 18 Dec 19:38:55 19:40:10 11° 272° (W) 19:41:25 437.470
DANDE 18 Dec 19:39:41 19:45:16 22° 67° (ENE) 19:51:27 436.750
PRISM 18 Dec 19:41:05 19:44:22 23° 293° (WNW) 19:47:37 437.425
HO-68 18 Dec 19:54:25 20:01:23 56° 68° (ENE) 20:08:22 435.675
DOVE 4 18 Dec 19:59:40 20:02:39 20° 66° (ENE) 20:05:40 437.250
COMPASS 1 18 Dec 20:02:31 20:06:06 28° 69° (ENE) 20:09:44 437.405
SEEDS 18 Dec 20:04:41 20:08:32 35° 71° (ENE) 20:12:25 437.485
CUTE 1.7 + AOD 2 18 Dec 20:04:59 20:08:58 40° 72° (ENE) 20:13:00 437.475
DX 1 18 Dec 20:09:31 20:11:34 13° 62° (ENE) 20:13:36 434.975-435.025
STRAND 1 18 Dec 20:16:19 20:20:52 34° 292° (WNW) 20:25:24 437.568
BRITE-PL 18 Dec 20:22:45 20:26:56 70° 75° (ENE) 20:31:04 437.365/2234.400
ISS 18 Dec 20:26:19 20:29:27 40° 29° (NNE) 20:32:33 145.825
DELFI C3 18 Dec 20:32:54 20:36:05 22° 68° (ENE) 20:39:16 145.870
Oscar 11 18 Dec 20:34:00 20:37:41 28° 69° (ENE) 20:41:25 145.826/435.025
CUBEBUG 2 18 Dec 20:39:13 20:42:14 20° 66° (ENE) 20:45:18 437.445
CINEMA 3 18 Dec 20:40:32 20:44:13 32° 70° (ENE) 20:47:59 145.822/145.860
CUSAT 1 18 Dec 20:40:47 20:48:15 62° 78° (ENE) 20:56:39 437.405
UKube-1 18 Dec 20:41:09 20:44:48 27° 68° (ENE) 20:48:27 .
RS-15 18 Dec 20:51:55 21:03:05 64° 51° (NE) 21:14:43 29.354- 29.394
VELOX 1 18 Dec 20:54:42 20:56:51 14° 62° (ENE) 20:58:59 145.980
ZACube-1 18 Dec 20:59:02 21:02:21 23° 67° (ENE) 21:05:43 437.345
GOMX 1 18 Dec 21:00:36 21:04:43 62° 259° (W) 21:08:51 467.674
AAUSAT CUBESAT 2 18 Dec 21:03:40 21:07:50 67° 259° (W) 21:12:04 437.432
CANX-2 18 Dec 21:09:51 21:13:43 33° 263° (W) 21:17:37 2200.000
UWE-3 18 Dec 21:20:49 21:24:49 47° 73° (ENE) 21:28:54 435.000/436.395/437.385
DANDE 18 Dec 21:21:49 21:29:18 84° 262° (W) 21:37:59 436.750
FUNcube-1 18 Dec 21:25:40 21:29:38 44° 72° (ENE) 21:33:41 145.935
AISAT 18 Dec 21:34:26 21:38:26 35° 70° (ENE) 21:42:26 437.250
DOVE 4 18 Dec 21:36:30 21:40:14 33° 263° (W) 21:44:01 437.250
PCSat 18 Dec 21:38:15 21:39:52 11° 35° (NE) 21:41:30 145.827
COMPASS 1 18 Dec 21:38:20 21:41:47 24° 265° (W) 21:45:17 437.405
SO-50 18 Dec 21:40:58 21:45:23 58° 119° (ESE) 21:49:58 436.795
SEEDS 18 Dec 21:41:20 21:44:27 20° 267° (W) 21:47:35 437.485
CUTE 1.7 + AOD 2 18 Dec 21:42:16 21:45:04 17° 268° (W) 21:47:54 437.475
BEESAT 2 18 Dec 21:42:21 21:45:02 16° 42° (NE) 21:47:42 435.950
DX 1 18 Dec 21:42:59 21:47:17 61° 258° (WSW) 21:51:36 434.975-435.025
HO-68 18 Dec 21:43:25 21:49:24 28° 265° (W) 21:55:25 435.675
CUBEBUG 1 18 Dec 21:49:26 21:52:29 19° 65° (ENE) 21:55:31 437.445
ISS 18 Dec 22:03:11 22:05:54 24° 226° (SW) 22:08:36 145.825
DELFI C3 18 Dec 22:07:34 22:11:11 30° 264° (W) 22:14:50 145.870
50 SAT 18 Dec 22:09:38 22:13:36 67° 75° (ENE) 22:17:38 437.505
Oscar 11 18 Dec 22:10:13 22:13:49 25° 265° (W) 22:17:27 145.826/435.025
CUBEBUG 2 18 Dec 22:14:54 22:18:42 35° 263° (W) 22:22:36 437.445
HUMSAT D 18 Dec 22:15:08 22:19:15 84° 258° (WSW) 22:23:27 437.325/437.525
QB50P1 18 Dec 22:16:23 22:18:23 13° 91° (E) 22:20:23 145.935-145.965
UKube-1 18 Dec 22:17:12 22:20:53 27° 264° (W) 22:24:35 .
CINEMA 3 18 Dec 22:18:27 22:21:31 20° 267° (W) 22:24:39 145.822/145.860
TIGRISAT 18 Dec 22:18:27 22:22:15 24° 94° (E) 22:26:02 435.000
ESTCUBE 1 18 Dec 22:23:19 22:27:38 45° 72° (ENE) 22:31:58 437.505/2401.250
CUSAT 1 18 Dec 22:24:36 22:31:00 30° 272° (W) 22:38:01 437.405
VELOX 1 18 Dec 22:28:32 22:32:54 62° 259° (WSW) 22:37:18 145.980
ZACube-1 18 Dec 22:34:58 22:38:35 29° 264° (W) 22:42:18 437.345
AIST 2 18 Dec 22:36:34 22:40:09 25° 47° (NE) 22:43:41 435.215
BEESAT 3 18 Dec 22:41:36 22:45:44 57° 55° (NE) 22:49:47 437.485
POPSAT HIP 1 18 Dec 22:43:28 22:47:04 26° 96° (E) 22:50:40 437.405
UNISAT 6 18 Dec 22:45:55 22:50:28 47° 99° (E) 22:55:00 437.425
UWE-3 18 Dec 22:59:28 23:01:40 14° 269° (W) 23:03:54 435.000/436.395/437.385
FUNcube-1 18 Dec 23:03:52 23:06:15 15° 269° (W) 23:08:40 145.935
RS-15 18 Dec 23:04:51 23:14:57 40° 252° (WSW) 23:25:28 29.354- 29.394
SPROUT 18 Dec 23:05:13 23:08:49 27° 69° (ENE) 23:12:26 437.525
DANDE 18 Dec 23:07:20 23:12:04 18° 276° (W) 23:17:09 436.750
TISAT 1 18 Dec 23:08:36 23:12:20 32° 70° (ENE) 23:16:05 437.305
AISAT 18 Dec 23:11:44 23:15:08 21° 266° (W) 23:18:32 437.250
DUCHIFAT 1 18 Dec 23:12:08 23:16:18 55° 100° (E) 23:20:29 145.980
ANTELSAT 18 Dec 23:17:32 23:22:15 82° 284° (WNW) 23:26:59 437.575/2403.000
PCSat 18 Dec 23:19:12 23:24:32 55° 57° (ENE) 23:29:50 145.827
BEESAT 2 18 Dec 23:19:33 23:23:43 64° 241° (WSW) 23:27:48 435.950
BUGSAT 1 18 Dec 23:21:26 23:25:25 56° 101° (E) 23:29:25 437.445
SO-50 18 Dec 23:22:52 23:26:19 20° 318° (NW) 23:29:51 436.795
QB50P2 18 Dec 23:24:06 23:28:23 79° 103° (ESE) 23:32:39 145.880/145.840
CUBEBUG 1 18 Dec 23:24:26 23:28:33 41° 261° (W) 23:32:41 437.445
POLYITAN 1 18 Dec 23:32:10 23:36:28 85° 284° (WNW) 23:40:45 437.675
NANOSAT C BR1 18 Dec 23:36:18 23:40:34 77° 285° (WNW) 23:44:48 145.865
YUBILEINY 18 Dec 23:36:54 23:44:51 41° 87° (E) 23:52:47 435.215
QB50P1 18 Dec 23:50:26 23:54:35 53° 287° (WNW) 23:58:44 145.935-145.965
AUBIESAT-1 18 Dec 23:50:37 23:52:38 13° 55° (NE) 23:54:39 437.475
TIGRISAT 18 Dec 23:54:46 23:59:02 35° 290° (WNW) 00:03:18 435.000
ESTCUBE 1 19 Dec 00:01:43 00:04:43 17° 268° (W) 00:07:44 437.505/2401.250
M-CUBED/EXP-1 PRIME 19 Dec 00:12:46 00:16:25 22° 60° (ENE) 00:20:07 437.505
AIST 2 19 Dec 00:14:54 00:18:52 37° 245° (WSW) 00:22:45 435.215
POPSAT HIP 1 19 Dec 00:19:20 00:22:54 26° 292° (WNW) 00:26:27 437.405
BEESAT 3 19 Dec 00:21:22 00:23:25 13° 251° (WSW) 00:25:27 437.485
UNISAT 6 19 Dec 00:23:35 00:26:54 19° 295° (WNW) 00:30:13 437.425
ITUPSAT 1 19 Dec 00:33:51 00:38:22 42° 70° (ENE) 00:42:53 437.325
SWISSCUBE 19 Dec 00:34:09 00:38:43 46° 71° (ENE) 00:43:19 437.505
SPROUT 19 Dec 00:41:17 00:44:51 26° 265° (W) 00:48:26 437.525
O/OREOS (USA 219) 19 Dec 00:43:00 00:46:52 30° 104° (ESE) 00:50:45 437.305
TISAT 1 19 Dec 00:45:00 00:48:12 21° 266° (W) 00:51:26 437.305
DUCHIFAT 1 19 Dec 00:49:33 00:51:42 14° 297° (WNW) 00:53:52 145.980
BUGSAT 1 19 Dec 00:58:45 01:00:27 12° 297° (WNW) 01:02:10 437.445
BEESAT 19 Dec 00:59:20 01:04:07 77° 75° (ENE) 01:08:56 436.000
KKS-1 19 Dec 01:00:29 01:03:11 16° 64° (ENE) 01:05:54 437.445
STARS 19 Dec 01:02:43 01:04:01 11° 61° (ENE) 01:05:19 437.465
QB50P2 19 Dec 01:03:13 01:03:40 10° 299° (WNW) 01:04:06 145.880/145.840
PCSat 19 Dec 01:03:33 01:07:31 21° 254° (WSW) 01:11:27 145.827
Oscar 19 19 Dec 01:06:31 01:10:43 24° 94° (E) 01:14:52 437.125/150
ITAMSAT 1 19 Dec 01:20:17 01:21:31 11° 89° (E) 01:22:44 435.822/435.867
AUBIESAT-1 19 Dec 01:22:00 01:26:48 88° 72° (ENE) 01:31:44 437.475
YUBILEINY 19 Dec 01:33:20 01:41:32 44° 286° (WNW) 01:49:47 435.215
M-CUBED/EXP-1 PRIME 19 Dec 01:46:24 01:51:02 49° 256° (WSW) 01:55:50 437.505
ITUPSAT 1 19 Dec 02:12:47 02:16:24 21° 266° (W) 02:20:02 437.325
SWISSCUBE 19 Dec 02:13:26 02:16:48 19° 267° (W) 02:20:11 437.505
O/OREOS (USA 219) 19 Dec 02:22:29 02:26:14 26° 301° (WNW) 02:30:01 437.305
KKS-1 19 Dec 02:35:07 02:39:25 50° 260° (W) 02:43:44 437.445
STARS 19 Dec 02:35:30 02:39:52 75° 257° (WSW) 02:44:16 437.465
Gurwin Techsat 1B 19 Dec 02:40:22 02:45:24 42° 98° (E) 02:50:24 435.225
BEESAT 19 Dec 02:41:11 02:42:30 11° 271° (W) 02:43:49 436.000
Oscar 19 19 Dec 02:45:18 02:50:10 41° 291° (WNW) 02:55:01 437.125/150
VERMONT LUNAR 19 Dec 02:53:00 02:53:32 10° 145° (SE) 02:54:05 437.305
ITAMSAT 1 19 Dec 02:56:27 03:01:39 86° 285° (WNW) 03:06:49 435.822/435.867
AUBIESAT-1 19 Dec 03:01:24 03:02:20 11° 267° (W) 03:03:16 437.475
MOZHAYETS 4 19 Dec 03:31:46 03:35:13 21° 66° (ENE) 03:38:40
AIST 1 19 Dec 03:45:11 03:49:19 45° 78° (ENE) 03:53:24
HORYU 2 19 Dec 03:56:12 04:00:45 86° 284° (WNW) 04:05:16 437.375
AO-7 19 Dec 03:57:47 04:05:26 38° 98° (E) 04:13:01 29.400- 29.500
Gurwin Techsat 1B 19 Dec 04:20:50 04:25:07 25° 295° (WNW) 04:29:23 435.225
VERMONT LUNAR 19 Dec 04:27:58 04:31:16 39° 160° (SSE) 04:34:35 437.305
PHONESAT 2.4 19 Dec 04:33:04 04:36:19 31° 156° (SSE) 04:39:34 2401.200-2431.200
SO-50 19 Dec 04:34:04 04:35:30 11° 33° (NNE) 04:36:56 436.795
JAS-2 19 Dec 04:37:07 04:41:31 23° 91° (E) 04:45:38 435.910
ITAMSAT 1 19 Dec 04:38:38 04:40:19 12° 302° (WNW) 04:42:00 435.822/435.867
CUBESAT XI-V 19 Dec 04:52:10 04:53:20 11° 60° (ENE) 04:54:30 437.345
PRISM 19 Dec 04:56:28 04:59:51 24° 67° (ENE) 05:03:14 437.425
MOZHAYETS 4 19 Dec 05:07:46 05:12:09 41° 262° (W) 05:16:34
AIST 1 19 Dec 05:24:17 05:26:32 14° 275° (W) 05:28:46
GONETS M04 19 Dec 05:31:00 05:39:20 49° 89° (E) 05:47:41
Cubesat XI-IV 19 Dec 05:38:44 05:42:15 18° 92° (E) 05:45:44 437.490
AO-7 19 Dec 05:50:23 05:58:21 50° 297° (WNW) 06:06:17 29.400- 29.500
STRAND 1 19 Dec 05:53:08 05:57:55 42° 70° (ENE) 06:02:42 437.568
VERMONT LUNAR 19 Dec 06:05:55 06:09:27 79° 176° (S) 06:12:59 437.305
PHONESAT 2.4 19 Dec 06:11:10 06:14:47 74° 173° (S) 06:18:24 2401.200-2431.200
CUTE-I 19 Dec 06:11:31 06:16:22 35° 97° (E) 06:21:11 437.470
SO-50 19 Dec 06:12:20 06:17:08 54° 53° (NE) 06:21:57 436.795
JAS-2 19 Dec 06:21:30 06:26:56 44° 292° (WNW) 06:31:54 435.910
CUBESAT XI-V 19 Dec 06:25:23 06:30:04 85° 257° (WSW) 06:34:46 437.345
PRISM 19 Dec 06:31:32 06:35:14 29° 263° (W) 06:38:58 437.425
Cubesat XI-IV 19 Dec 07:17:29 07:22:42 58° 288° (WNW) 07:27:54 437.490
GONETS M04 19 Dec 07:28:17 07:36:18 38° 289° (WNW) 07:44:23
STRAND 1 19 Dec 07:33:14 07:37:15 23° 266° (W) 07:41:16 437.568
VERMONT LUNAR 19 Dec 07:44:13 07:47:43 58° 193° (SSW) 07:51:11 437.305
AO-7 19 Dec 07:46:38 07:49:08 12° 318° (NW) 07:51:39 29.400- 29.500
PHONESAT 2.4 19 Dec 07:49:49 07:53:26 68° 190° (S) 07:57:03 2401.200-2431.200
CUTE-I 19 Dec 07:51:45 07:56:19 30° 294° (WNW) 08:00:52 437.470
SO-50 19 Dec 07:53:49 07:57:18 20° 250° (WSW) 08:00:47 436.795
BRITE-PL 19 Dec 08:26:58 08:30:41 23° 95° (E) 08:34:36 437.365/2234.400
AAUSAT CUBESAT 2 19 Dec 08:48:09 08:51:14 19° 93° (E) 08:54:18 437.432
CANX-2 19 Dec 08:55:06 08:59:11 40° 98° (E) 09:03:14 2200.000
GOMX 1 19 Dec 09:01:29 09:05:52 37° 98° (E) 09:10:31 467.674
HO-68 19 Dec 09:09:26 09:16:29 57° 102° (ESE) 09:23:28 435.675
QB50P1 19 Dec 09:11:04 09:12:10 11° 62° (ENE) 09:13:16 145.935-145.965
UWE-3 19 Dec 09:13:23 09:14:23 11° 89° (E) 09:15:22 435.000/436.395/437.385
TIGRISAT 19 Dec 09:18:08 09:21:21 21° 66° (ENE) 09:24:38 435.000
COMPASS 1 19 Dec 09:21:28 09:25:39 52° 100° (E) 09:29:47 437.405
VERMONT LUNAR 19 Dec 09:23:03 09:25:39 19° 209° (SSW) 09:28:16 437.305
SEEDS 19 Dec 09:24:43 09:29:01 69° 102° (ESE) 09:33:16 437.485
CUTE 1.7 + AOD 2 19 Dec 09:25:59 09:30:19 83° 102° (ESE) 09:34:38 437.475
PHONESAT 2.4 19 Dec 09:28:46 09:31:50 26° 206° (SSW) 09:34:54 2401.200-2431.200
DX 1 19 Dec 09:32:07 09:35:30 22° 95° (E) 09:38:52 434.975-435.025
DOVE 4 19 Dec 09:34:12 09:38:53 59° 101° (E) 09:43:50 437.250
POPSAT HIP 1 19 Dec 09:37:13 09:40:23 21° 67° (ENE) 09:43:33 437.405
MaSat-1 19 Dec 09:41:46 09:44:01 44° 298° (WNW) 09:46:12 437.345
UNISAT 6 19 Dec 09:45:24 09:49:27 40° 71° (ENE) 09:53:38 437.425
YUBILEINY 19 Dec 09:47:24 09:53:23 20° 63° (ENE) 09:59:21 435.215
DELFI C3 19 Dec 09:47:53 09:51:43 36° 98° (E) 09:55:31 145.870
CUSAT 1 19 Dec 09:53:55 09:57:17 53° 94° (E) 10:01:45 437.405
Oscar 11 19 Dec 09:56:47 10:01:06 56° 100° (E) 10:05:22 145.826/435.025
HUMSAT D 19 Dec 10:00:50 10:03:38 17° 92° (E) 10:06:26 437.325/437.525
UKube-1 19 Dec 10:04:20 10:08:32 48° 100° (E) 10:12:42 .
BRITE-PL 19 Dec 10:04:59 10:09:15 38° 288° (WNW) 10:13:50 437.365/2234.400
DUCHIFAT 1 19 Dec 10:05:06 10:09:03 41° 72° (ENE) 10:13:00 145.980
CUBEBUG 2 19 Dec 10:05:22 10:09:49 46° 99° (E) 10:14:22 437.445
CINEMA 3 19 Dec 10:11:23 10:16:07 86° 103° (ESE) 10:21:01 145.822/145.860
BUGSAT 1 19 Dec 10:11:57 10:15:46 39° 72° (ENE) 10:19:34 437.445
ANTELSAT 19 Dec 10:16:49 10:21:10 89° 76° (ENE) 10:25:40 437.575/2403.000
QB50P2 19 Dec 10:17:17 10:21:26 59° 74° (ENE) 10:25:36 145.880/145.840
VELOX 1 19 Dec 10:19:54 10:23:31 24° 95° (E) 10:27:07 145.980
ZACube-1 19 Dec 10:22:53 10:27:18 51° 100° (E) 10:31:46 437.345
AAUSAT CUBESAT 2 19 Dec 10:23:07 10:27:00 35° 289° (WNW) 10:30:51 437.432
POLYITAN 1 19 Dec 10:25:30 10:29:41 73° 75° (ENE) 10:33:54 437.675
NANOSAT C BR1 19 Dec 10:29:08 10:33:19 80° 76° (ENE) 10:37:33 145.865
CANX-2 19 Dec 10:31:49 10:34:49 19° 294° (WNW) 10:37:48 2200.000
DANDE 19 Dec 10:38:18 10:41:34 52° 285° (WNW) 10:45:55 436.750
GOMX 1 19 Dec 10:40:03 10:43:50 25° 292° (WNW) 10:47:48 467.674
QB50P1 19 Dec 10:43:16 10:47:28 71° 258° (WSW) 10:51:41 145.935-145.965
UWE-3 19 Dec 10:46:48 10:51:23 76° 284° (WNW) 10:56:01 435.000/436.395/437.385
FUNcube-1 19 Dec 10:50:03 10:54:35 83° 284° (WNW) 10:59:10 145.935
O/OREOS (USA 219) 19 Dec 10:52:12 10:56:40 59° 65° (ENE) 11:01:08 437.305
TIGRISAT 19 Dec 10:53:51 10:57:51 36° 263° (W) 11:01:57 435.000
HO-68 19 Dec 10:57:50 11:03:45 29° 300° (WNW) 11:09:39 435.675
COMPASS 1 19 Dec 10:58:37 11:00:55 15° 296° (WNW) 11:03:14 437.405
AISAT 19 Dec 11:01:36 11:06:02 72° 102° (ESE) 11:10:27 437.250
SEEDS 19 Dec 11:02:48 11:04:15 12° 298° (WNW) 11:05:42 437.485
DX 1 19 Dec 11:07:54 11:11:47 33° 291° (WNW) 11:15:39 434.975-435.025
POPSAT HIP 1 19 Dec 11:12:17 11:16:05 33° 263° (W) 11:19:54 437.405
DOVE 4 19 Dec 11:13:22 11:16:15 16° 295° (WNW) 11:19:13 437.250
CUBEBUG 1 19 Dec 11:13:29 11:17:27 34° 97° (E) 11:21:24 437.445
RS-15 19 Dec 11:16:45 11:26:20 37° 107° (ESE) 11:35:53 29.354- 29.394
UNISAT 6 19 Dec 11:23:25 11:26:26 18° 268° (W) 11:29:31 437.425
DELFI C3 19 Dec 11:23:51 11:26:44 19° 294° (WNW) 11:29:35 145.870
50 SAT 19 Dec 11:25:04 11:29:12 69° 285° (WNW) 11:33:19 437.505
Oscar 11 19 Dec 11:34:28 11:36:47 14° 297° (WNW) 11:39:05 145.826/435.025
HUMSAT D 19 Dec 11:35:31 11:39:37 43° 288° (WNW) 11:43:44 437.325/437.525
CUSAT 1 19 Dec 11:40:12 11:41:18 11° 303° (WNW) 11:42:28 437.405
UKube-1 19 Dec 11:41:38 11:44:18 16° 296° (WNW) 11:46:58 .
DUCHIFAT 1 19 Dec 11:42:27 11:45:06 16° 267° (W) 11:47:45 145.980
YUBILEINY 19 Dec 11:42:39 11:51:24 87° 264° (W) 12:00:06 435.215
CUBEBUG 2 19 Dec 11:42:58 11:46:12 19° 294° (WNW) 11:49:28 437.445
BUGSAT 1 19 Dec 11:48:50 11:51:25 16° 267° (W) 11:54:00 437.445
CINEMA 3 19 Dec 11:51:15 11:52:41 11° 298° (WNW) 11:54:07 145.822/145.860
ESTCUBE 1 19 Dec 11:52:45 11:57:16 82° 285° (WNW) 12:01:45 437.505/2401.250
VELOX 1 19 Dec 11:56:14 12:00:06 31° 291° (WNW) 12:03:58 145.980
QB50P2 19 Dec 11:56:16 11:57:43 12° 270° (W) 11:59:11 145.880/145.840
ZACube-1 19 Dec 12:00:25 12:03:16 17° 295° (WNW) 12:06:09 437.345
Oscar 19 19 Dec 12:23:20 12:27:57 35° 68° (ENE) 12:32:36 437.125/150
SPROUT 19 Dec 12:27:17 12:31:30 53° 100° (E) 12:35:42 437.525
TISAT 1 19 Dec 12:28:49 12:33:00 59° 101° (E) 12:37:10 437.305
O/OREOS (USA 219) 19 Dec 12:33:27 12:35:31 13° 262° (W) 12:37:36 437.305
SWISSCUBE 19 Dec 12:37:00 12:38:35 12° 89° (E) 12:40:09 437.505
ITAMSAT 1 19 Dec 12:37:09 12:40:42 19° 62° (ENE) 12:44:15 435.822/435.867
ITUPSAT 1 19 Dec 12:37:51 12:38:22 10° 89° (E) 12:38:53 437.325
BEESAT 3 19 Dec 12:39:42 12:40:29 11° 107° (ESE) 12:41:17 437.485
AISAT 19 Dec 12:40:27 12:42:04 12° 299° (WNW) 12:43:41 437.250
CUBEBUG 1 19 Dec 12:50:21 12:53:37 21° 294° (WNW) 12:56:52 437.445
BEESAT 19 Dec 13:00:44 13:04:10 20° 93° (E) 13:07:35 436.000
ISS 19 Dec 13:09:31 13:10:34 11° 129° (SE) 13:11:37 145.825
AO-7 19 Dec 13:10:53 13:13:40 12° 42° (NE) 13:16:28 29.400- 29.500
BEESAT 2 19 Dec 13:15:25 13:18:44 24° 113° (ESE) 13:22:06 435.950
RS-15 19 Dec 13:27:13 13:38:01 64° 309° (NW) 13:48:57 29.354- 29.394
M-CUBED/EXP-1 PRIME 19 Dec 13:31:42 13:33:51 14° 94° (E) 13:35:56 437.505
YUBILEINY 19 Dec 13:41:53 13:46:50 17° 284° (WNW) 13:51:48 435.215
PCSat 19 Dec 14:00:51 14:06:03 50° 113° (ESE) 14:11:17 145.827
Gurwin Techsat 1B 19 Dec 14:01:24 14:06:39 67° 73° (ENE) 14:11:56 435.225
Oscar 19 19 Dec 14:02:56 14:07:18 28° 265° (W) 14:11:43 437.125/150
SPROUT 19 Dec 14:04:48 14:07:09 15° 296° (WNW) 14:09:30 437.525
TISAT 1 19 Dec 14:06:25 14:08:20 13° 297° (WNW) 14:10:14 437.305
ITUPSAT 1 19 Dec 14:12:02 14:16:50 81° 285° (WNW) 14:21:35 437.325
SWISSCUBE 19 Dec 14:12:11 14:16:57 73° 286° (WNW) 14:21:40 437.505
AIST 2 19 Dec 14:12:54 14:16:57 46° 117° (ESE) 14:21:03 435.215
BEESAT 3 19 Dec 14:13:58 14:18:03 71° 304° (WNW) 14:22:13 437.485
ITAMSAT 1 19 Dec 14:14:39 14:19:44 57° 259° (W) 14:24:51 435.822/435.867
STARS 19 Dec 14:26:22 14:29:40 20° 94° (E) 14:32:57 437.465
KKS-1 19 Dec 14:26:33 14:30:30 30° 97° (E) 14:34:27 437.445
BEESAT 19 Dec 14:37:41 14:42:13 44° 289° (WNW) 14:46:42 436.000
AUBIESAT-1 19 Dec 14:40:15 14:44:39 74° 107° (ESE) 14:48:38 437.475
ISS 19 Dec 14:43:24 14:46:42 82° 325° (NW) 14:50:00 145.825
JAS-2 19 Dec 14:50:01 14:54:09 16° 57° (ENE) 14:58:07 435.910
BEESAT 2 19 Dec 14:53:04 14:56:50 33° 310° (NW) 15:00:39 435.950
HORYU 2 19 Dec 14:54:37 14:59:05 88° 76° (ENE) 15:03:36 437.375
AO-7 19 Dec 14:56:35 15:04:31 52° 64° (ENE) 15:12:31 29.400- 29.500
M-CUBED/EXP-1 PRIME 19 Dec 15:04:58 15:09:18 53° 293° (WNW) 15:13:16 437.505
GONETS M04 19 Dec 15:41:43 15:48:28 24° 65° (ENE) 15:55:08
Gurwin Techsat 1B 19 Dec 15:44:04 15:47:05 15° 270° (W) 15:50:07 435.225
RS-15 19 Dec 15:44:38 15:53:09 25° 339° (NNW) 16:01:52 29.354- 29.394
PCSat 19 Dec 15:45:12 15:49:43 26° 312° (NW) 15:54:15 145.827
AIST 2 19 Dec 15:52:31 15:55:47 21° 315° (NW) 15:59:06 435.215
BEESAT 3 19 Dec 15:56:01 15:57:01 11° 323° (NW) 15:58:01 437.485
STARS 19 Dec 16:02:10 16:06:15 37° 290° (WNW) 16:10:19 437.465
KKS-1 19 Dec 16:03:21 16:07:01 26° 293° (WNW) 16:10:42 437.445
AIST 1 19 Dec 16:15:10 16:18:53 28° 90° (E) 16:22:36
AUBIESAT-1 19 Dec 16:17:10 16:18:53 12° 306° (NW) 16:20:33 437.475
ISS 19 Dec 16:21:13 16:23:41 19° 343° (NNW) 16:26:09 145.825
JAS-2 19 Dec 16:30:33 16:38:15 78° 74° (ENE) 16:45:19 435.910
